FW8702 Weather Reports


Display with metric or nautical units.
time (UTC)temp
F
wind
direction
speed
MPH
gust
MPH
rain 1hr
in
rain 24hr
in
rain mn
in
humidity
%
barometer
mb
20260509191514 63 320 0.0 0.0 0.00 0.00 0.00 73 1015.6
20260509190004 65 320 0.0 0.0 0.00 0.00 0.00 73 1015.5
20260509184515 66 320 0.0 0.0 0.00 0.00 0.00 71 1015.6
20260509183026 67 320 0.0 0.0 0.00 0.00 0.00 67 1015.6
20260509181557 69 320 0.0 0.0 0.00 0.00 0.00 66 1015.4
20260509180057 70 320 0.0 0.0 0.00 0.00 0.00 62 1015.3
20260509174650 72 233 0.0 0.0 0.00 0.00 0.00 59 1015.3
20260509173028 73 233 0.0 0.0 0.00 0.00 0.00 54 1015.2
20260509171557 75 233 0.0 0.0 0.00 0.00 0.00 47 1015.3
20260509170004 76 233 0.0 0.0 0.00 0.00 0.00 45 1015.3
20260509164531 77 233 0.0 0.0 0.00 0.00 0.00 45 1015.5
20260509163105 76 233 0.0 0.0 0.00 0.00 0.00 45 1015.7
20260509161514 75 227 0.0 0.0 0.00 0.00 0.00 47 1015.6
20260509160011 75 229 0.0 0.0 0.00 0.00 0.00 45 1015.9
20260509154534 76 238 0.0 5.0 0.00 0.00 0.00 45 1015.9
20260509153051 76 242 0.0 4.0 0.00 0.00 0.00 45 1015.9
20260509151510 75 231 0.0 4.0 0.00 0.00 0.00 45 1016.0
20260509150026 75 249 0.0 8.0 0.00 0.00 0.00 47 1015.9
20260509144546 75 235 2.0 9.0 0.00 0.00 0.00 47 1015.9
20260509143014 75 242 2.0 10.0 0.00 0.00 0.00 48 1016.0
20260509141527 75 262 0.0 12.0 0.00 0.00 0.00 50 1016.0
20260509140033 76 226 1.0 9.0 0.00 0.00 0.00 48 1016.2
20260509134541 76 256 2.0 8.0 0.00 0.00 0.00 45 1016.4
20260509133059 75 327 0.0 5.0 0.00 0.00 0.00 47 1016.8
20260509131505 76 297 0.0 4.0 0.00 0.00 0.00 44 1016.9
20260509130123 76 229 0.0 5.0 0.00 0.00 0.00 45 1017.1
20260509124537 75 240 0.0 6.0 0.00 0.00 0.00 46 1017.1
20260509123104 74 204 0.0 8.0 0.00 0.00 0.00 48 1017.0
20260509121514 74 231 2.0 10.0 0.00 0.00 0.00 50 1017.2
20260509120023 75 233 0.0 2.0 0.00 0.00 0.00 52 1017.2
20260509114543 73 246 0.0 6.0 0.00 0.00 0.00 53 1017.4
20260509113043 73 289 0.0 1.0 0.00 0.00 0.00 54 1017.5
20260509111507 73 245 0.0 1.0 0.00 0.00 0.00 56 1017.7
20260509110026 73 255 0.0 0.0 0.00 0.00 0.00 58 1018.0
20260509104539 72 243 0.0 3.0 0.00 0.00 0.00 56 1018.2
20260509103002 70 235 0.0 1.0 0.00 0.00 0.00 58 1018.5
20260509101530 71 233 0.0 7.0 0.00 0.00 0.00 57 1018.6
20260509100025 70 233 0.0 2.0 0.00 0.00 0.00 60 1018.7
20260509094551 70 223 0.0 2.0 0.00 0.00 0.00 60 1018.8
20260509093018 69 137 0.0 1.0 0.00 0.00 0.00 60 1018.7
20260509091531 68 188 0.0 1.0 0.00 0.00 0.00 66 1018.9
20260509090025 67 130 0.0 0.0 0.00 0.00 0.00 67 1019.0
20260509084537 65 67 0.0 1.0 0.00 0.00 0.00 69 1019.1
20260509083105 64 298 0.0 0.0 0.00 0.00 0.00 71 1019.1
20260509081524 64 301 0.0 3.0 0.00 0.00 0.00 72 1019.2
20260509080022 63 312 0.0 4.0 0.00 0.00 0.00 71 1019.2
20260509074535 63 265 0.0 1.0 0.00 0.00 0.00 71 1019.3
20260509073053 63 47 0.0 0.0 0.00 0.00 0.00 73 1019.4
20260509071519 62 72 0.0 1.0 0.00 0.00 0.00 72 1019.4
20260509070020 61 8 0.0 1.0 0.00 0.00 0.00 74 1019.4
20260509064537 60 30 0.0 0.0 0.00 0.00 0.00 77 1019.3
20260509063101 59 296 0.0 0.0 0.00 0.00 0.00 78 1019.4
20260509061526 58 293 0.0 0.0 0.00 0.00 0.00 82 1019.3
20260509060015 57 104 0.0 0.0 0.00 0.00 0.00 82 1019.4
20260509054527 56 119 0.0 0.0 0.00 0.00 0.00 84 1019.4
20260509053053 55 121 0.0 0.0 0.00 0.00 0.00 84 1019.3
20260509051517 54 301 0.0 0.0 0.00 0.00 0.00 86 1019.2
20260509050039 53 299 0.0 0.0 0.00 0.00 0.00 87 1019.3
20260509044550 53 299 0.0 0.0 0.00 0.00 0.00 87 1019.1
20260509043015 53 304 0.0 0.0 0.00 0.00 0.00 87 1018.9
20260509041545 53 308 0.0 0.0 0.00 0.00 0.00 86 1018.8
20260509040100 53 304 0.0 1.0 0.00 0.00 0.00 87 1018.8
20260509034526 52 8 0.0 0.0 0.00 0.00 0.00 87 1018.7
20260509033056 53 8 0.0 0.0 0.00 0.00 0.00 85 1018.7
20260509031530 54 8 0.0 0.0 0.00 0.00 0.00 86 1018.7
20260509030032 54 13 0.0 1.0 0.00 0.00 0.00 87 1018.8
20260509024539 52 298 0.0 1.0 0.00 0.00 0.00 88 1018.9
20260509023058 53 298 0.0 0.0 0.00 0.00 0.00 88 1018.6
20260509021519 53 304 0.0 1.0 0.00 0.00 0.00 89 1018.6
20260509020035 52 305 0.0 0.0 0.00 0.00 0.00 90 1018.8
20260509014501 51 333 0.0 0.0 0.00 0.00 0.00 90 1018.8
20260509013040 51 333 0.0 0.0 0.00 0.00 0.00 89 1019.0
20260509011600 52 333 0.0 0.0 0.00 0.00 0.00 89 1019.1
20260509010103 52 333 0.0 0.0 0.00 0.00 0.00 89 1019.1
20260509004538 53 333 0.0 0.0 0.00 0.00 0.00 88 1019.0
20260509003042 53 325 0.0 0.0 0.00 0.00 0.00 88 1019.1
20260509001503 54 319 0.0 0.0 0.00 0.00 0.00 87 1019.0
20260509000016 54 8 0.0 5.0 0.00 0.00 0.00 88 1018.9
20260508234541 53 234 0.0 0.0 0.00 0.00 0.00 91 1018.9
20260508233002 52 233 0.0 0.0 0.00 0.00 0.00 90 1018.7
20260508231514 52 232 0.0 0.0 0.00 0.00 0.00 89 1018.7
20260508230009 52 232 0.0 0.0 0.00 0.00 0.00 89 1019.0
20260508224523 52 232 0.0 0.0 0.00 0.00 0.00 89 1019.0
20260508223053 52 232 0.0 0.0 0.00 0.00 0.00 89 1018.9
20260508221529 52 232 0.0 0.0 0.00 0.00 0.00 89 1018.8
20260508220033 52 232 0.0 0.0 0.00 0.00 0.00 88 1018.9
20260508214609 53 232 0.0 0.0 0.00 0.00 0.00 88 1018.8
20260508213028 53 232 0.0 0.0 0.00 0.00 0.00 88 1018.7
20260508211535 53 232 0.0 0.0 0.00 0.00 0.00 88 1018.7
20260508210035 54 232 0.0 0.0 0.00 0.00 0.00 87 1018.8
20260508204547 54 232 0.0 0.0 0.00 0.00 0.00 87 1018.7
20260508203013 55 232 0.0 0.0 0.00 0.00 0.00 86 1018.6
20260508201549 56 232 0.0 0.0 0.00 0.00 0.00 86 1018.5
20260508200045 56 232 0.0 0.0 0.00 0.00 0.00 84 1018.4
20260508194503 57 232 0.0 0.0 0.00 0.00 0.00 84 1018.1
20260508193103 57 231 0.0 0.0 0.00 0.00 0.00 83 1017.8